This is the latest recevied weather packets stored in our database for station/object DK1ZX-10. If no packets are shown the sender has not sent any weather packets the latest 10 day(s).
| Time | Temp. | Humidity | Pressure | Rain* | Wind** | Luminosity | Snow |
|---|---|---|---|---|---|---|---|
| 1777144827 | 11.67° C | 34% | 1016.6 hPa | - | - | - | - |
| 1777143627 | 13.33° C | 31% | 1016.3 hPa | - | - | - | - |
| 1777142427 | 12.22° C | 32% | 1016.1 hPa | - | - | - | - |
| 1777141227 | 13.33° C | 29% | 1015.8 hPa | - | - | - | - |
| 1777140027 | 15° C | 26% | 1015.7 hPa | - | - | - | - |
| 1777138827 | 16.67° C | 23% | 1015.5 hPa | - | - | - | - |
| 1777137627 | 17.78° C | 21% | 1015.3 hPa | - | - | - | - |
| 1777136427 | 18.33° C | 23% | 1015.2 hPa | - | - | - | - |
| 1777135227 | 18.89° C | 19% | 1015.1 hPa | - | - | - | - |
| 1777134027 | 20° C | 18% | 1015.1 hPa | - | - | - | - |
| 1777132826 | 20.56° C | 17% | 1015.2 hPa | - | - | - | - |
| 1777131626 | 21.11° C | 19% | 1015.1 hPa | - | - | - | - |
| 1777130426 | 21.11° C | 22% | 1015.1 hPa | - | - | - | - |
| 1777129226 | 21.11° C | 23% | 1015.1 hPa | - | - | - | - |
| 1777128026 | 21.67° C | 23% | 1015.2 hPa | - | - | - | - |
| 1777126826 | 21.67° C | 22% | 1015.3 hPa | - | - | - | - |
| 1777125626 | 21.67° C | 20% | 1015.3 hPa | - | - | - | - |
| 1777124426 | 21.67° C | 22% | 1015.5 hPa | - | - | - | - |
| 1777123226 | 21.11° C | 20% | 1015.7 hPa | - | - | - | - |
| 1777122026 | 21.67° C | 23% | 1015.9 hPa | - | - | - | - |
| 1777120826 | 21.67° C | 23% | 1016.2 hPa | - | - | - | - |
| 1777119626 | 21.67° C | 24% | 1016.3 hPa | - | - | - | - |
| 1777118426 | 21.67° C | 22% | 1016.4 hPa | - | - | - | - |
| 1777117225 | 22.78° C | 22% | 1016.7 hPa | - | - | - | - |
| 1777116024 | 23.33° C | 22% | 1016.8 hPa | - | - | - | - |
* Rain since midnight (hover to see other rain measurements)
** Current wind speed in m/s (hover to see current wind gust speed)